Notices

What's New in latest Release from April 7th, 2021:

- Updated Glossary, including Speed of Maximum Gust, and Total Hourly Precipitation

- Updated national and regional climate services offices contacts and prices information

- Addition of station inventory lists for 1981-2010, 1971-2000, and 1961-1990 Normals.

If you haven't already, please take our survey and provide feedback about our website: https://eccc.sondage-survey.ca/f/LanguageSelection.aspx?s=442ca660-fcf1-47c0-95a9-59707d6fd709

Hourly Data Report for June 28, 2018

LONDON CS
ONTARIO
Current Station Operator: ECCC - MSC

43°02'00.000" N
81°09'00.000" W
278.00 m
6144478
71622
WSN

Download Data

Hourly Data (June 2018)
Hourly Data Report for June 28, 2018
TIME
LST
Temp Definition
°C
Dew Point Definition
°C
Rel Hum Definition
%
Precip. Amount Definition
mm

Wind Dir Definition
10's deg

Wind Spd Definition
km/h
Visibility Definition
km
Stn Press Definition
kPa
Hmdx Definition


Wind Chill Definition


Weather Definition


00:00 19.8 19.0 95 0.0 LegendMM LegendMM   97.49     LegendNANA
01:00 19.5 18.7 95 0.0 LegendMM LegendMM   97.51     LegendNANA
02:00 19.5 18.8 95 0.0 LegendMM LegendMM   97.52     LegendNANA
03:00 19.2 18.5 96 0.0 LegendMM LegendMM   97.57     LegendNANA
04:00 18.0 17.5 97 0.0 LegendMM LegendMM   97.61     LegendNANA
05:00 17.6 17.2 98 0.0 LegendMM LegendMM   97.69     LegendNANA
06:00 17.1 16.8 98 0.0 LegendMM LegendMM   97.74     LegendNANA
07:00 17.0 16.6 97 0.0 LegendMM LegendMM   97.83     LegendNANA
08:00 18.8 17.0 90 0.0 LegendMM LegendMM   97.89     LegendNANA
09:00 19.8 17.1 85 0.0 LegendMM LegendMM   97.94     LegendNANA
10:00 21.3 16.9 76 0.0 LegendMM LegendMM   97.98 27   LegendNANA
11:00 22.5 17.9 75 0.0 LegendMM LegendMM   98.00 28   LegendNANA
12:00 23.3 18.4 74 0.0 LegendMM LegendMM   98.04 30   LegendNANA
13:00 24.1 18.7 72 0.0 LegendMM LegendMM   98.03 31   LegendNANA
14:00 25.2 18.0 64 0.0 LegendMM LegendMM   97.97 31   LegendNANA
15:00 26.5 17.0 56 0.0 LegendMM LegendMM   97.98 32   LegendNANA
16:00 27.3 16.7 52 0.0 LegendMM LegendMM   97.99 32   LegendNANA
17:00 27.4 16.3 51 0.0 LegendMM LegendMM   97.98 32   LegendNANA
18:00 27.0 16.6 53 0.0 LegendMM LegendMM   98.01 32   LegendNANA
19:00 26.1 16.7 56 0.0 LegendMM LegendMM   98.03 31   LegendNANA
20:00 23.8 19.5 77 0.0 LegendMM LegendMM   98.08 31   LegendNANA
21:00 22.9 19.6 81 0.0 LegendMM LegendMM   98.13 30   LegendNANA
22:00 21.7 19.3 86 0.0 LegendMM LegendMM   98.15 29   LegendNANA
23:00 21.7 19.2 85 0.0 LegendMM LegendMM   98.19 29   LegendNANA

Notes on Data Quality.

Legend

  • E = Estimated
  • M = Missing
  • NA = Not Available*
  • [empty] = Indicates an unobserved value
Date modified: